Theta_e
349 354 361 360 360 361 360 358 360 360 361 361 360 360 360 359 359 359 358 358 359 359 356 354 355 356 357 357 357 358 359 358 359 356 355 353 348 348 350 351 349 349 354
352 355 360 361 360 359 360 361 361 361 361 361 359 358 359 358 357 358 359 359 359 358 356 355 353 353 352 352 352 354 355 355 356 354 355 357 354 347 347 350 353 351 355
350 350 355 360 360 358 358 358 359 360 359 359 359 358 358 358 358 358 358 357 357 356 353 351 350 350 349 349 349 351 351 352 353 352 351 347 352 356 350 350 352 354 354
351 350 354 359 359 358 358 359 359 359 359 359 359 358 357 357 357 357 357 357 357 355 352 352 351 351 350 350 351 351 351 351 351 351 344 341 341 360 356 354 350 351 355
351 353 353 360 359 357 357 358 358 359 358 358 357 357 357 356 356 355 355 354 354 354 355 355 355 354 354 353 352 353 353 352 352 349 341 338 333 354 359 357 355 353 354
350 354 358 360 359 358 356 357 357 357 356 356 356 355 355 354 354 354 352 352 352 352 352 353 354 356 356 355 355 355 354 352 351 341 338 338 339 358 359 359 357 355 355
349 352 355 359 360 360 358 357 358 357 356 355 352 351 351 352 352 352 352 350 351 351 352 352 353 355 356 355 354 356 354 354 347 340 339 336 345 352 360 358 358 358 356
348 350 353 358 359 359 358 356 355 355 354 354 353 352 352 354 354 355 354 352 352 353 353 353 354 355 356 356 356 356 355 354 349 344 340 348 354 357 356 356 356 356 358
347 347 350 353 355 357 356 355 355 355 354 353 351 350 351 352 353 355 355 354 353 353 351 352 353 354 355 356 357 356 356 353 346 346 343 348 354 354 353 351 351 353 354
345 345 348 349 349 346 348 356 356 355 354 352 350 351 351 355 354 353 354 354 352 351 351 351 352 352 353 354 354 356 356 354 344 342 342 343 349 347 347 349 353 352 353
346 347 346 346 345 344 347 352 354 354 354 349 344 347 342 340 340 341 350 352 350 351 352 353 353 353 353 354 353 354 355 346 341 341 341 346 345 345 344 343 348 350 351
339 341 342 344 344 347 352 348 346 349 343 337 336 335 335 336 339 340 344 350 351 352 353 353 353 352 352 344 340 352 347 345 343 343 343 347 346 343 341 344 347 347 344
337 338 340 340 341 340 339 340 339 338 338 335 332 331 330 332 331 331 334 335 335 339 332 334 334 335 334 335 340 337 343 342 342 343 344 348 347 345 343 343 343 342 344
336 336 337 339 338 337 336 335 332 332 333 333 328 328 327 327 325 325 326 327 332 327 324 325 327 329 328 328 328 329 333 338 336 340 341 349 349 346 345 342 339 339 340
332 334 334 336 334 333 331 329 327 326 327 328 327 325 323 322 320 321 321 322 324 321 320 320 322 324 321 323 323 324 323 327 335 334 338 348 348 347 345 344 342 338 337
331 333 333 331 331 331 328 325 324 324 325 324 324 321 320 319 318 317 318 319 319 319 320 320 322 319 319 319 319 319 319 321 325 328 333 338 347 346 346 344 342 339 339
328 329 330 330 331 328 325 324 321 320 320 318 320 319 318 318 317 315 316 317 317 317 318 319 319 318 318 319 318 319 319 318 319 319 323 333 338 345 343 341 339 339 340
323 319 320 321 320 318 319 323 321 319 317 316 317 317 318 318 317 315 315 316 317 317 317 317 316 315 316 316 317 317 315 317 316 317 326 332 332 333 337 337 336 339 338
319 318 318 319 320 318 318 316 316 318 317 316 315 315 316 317 318 315 315 316 317 317 316 316 315 314 314 316 316 315 315 315 316 327 327 328 331 331 331 335 336 337 337
319 319 318 317 317 316 316 314 315 314 314 315 313 314 316 315 314 311 312 312 314 314 315 314 312 312 311 313 314 312 312 314 316 322 323 323 324 327 327 328 328 330 332
319 317 316 315 315 315 314 311 311 311 312 313 314 315 314 313 313 310 310 311 312 313 316 319 312 310 310 314 308 307 310 314 316 316 322 319 318 321 325 326 327 323 323
316 317 316 314 314 313 314 313 312 313 314 312 312 311 312 312 312 312 313 314 312 316 314 312 311 310 312 314 307 304 303 309 312 314 317 318 318 320 322 322 321 322 321
316 315 314 314 313 313 313 312 311 309 310 308 307 309 310 311 312 313 314 315 315 314 314 315 313 312 309 311 313 306 301 300 307 312 312 313 317 319 320 319 319 319 319
315 317 314 313 312 313 311 308 305 304 302 303 303 305 306 310 310 314 314 314 315 314 313 314 311 308 306 305 308 310 311 310 300 300 307 309 309 313 315 316 314 313 316
316 314 314 313 312 312 309 307 305 303 303 304 304 305 306 308 312 312 313 314 313 312 313 309 308 307 306 304 302 303 302 302 301 300 297 299 303 304 312 314 313 313 311
314 314 314 312 311 311 308 307 304 303 303 304 302 305 304 306 311 312 313 311 310 310 308 305 311 306 307 303 302 301 300 299 297 296 294 294 294 299 309 311 310 308 307
Wind_Speed
6 8 14 15 15 13 12 14 14 13 12 11 12 12 11 10 9 9 9 8 8 8 9 8 8 8 8 9 9 9 9 9 8 7 6 4 3 4 7 7 3 10 10
10 9 14 14 15 14 14 14 14 12 12 11 12 11 10 9 8 8 8 7 8 8 8 8 8 8 8 8 8 7 8 8 8 9 8 6 4 2 2 5 10 9 9
11 8 12 13 15 15 15 14 13 12 12 11 11 10 9 9 8 8 8 8 8 7 7 7 7 7 7 7 8 8 8 8 9 10 10 4 4 9 7 8 7 10 10
12 8 8 14 14 15 15 13 12 12 11 11 10 10 9 9 8 7 6 6 5 4 4 4 4 4 5 6 6 7 7 8 10 13 6 7 7 12 12 10 9 9 10
12 9 10 14 14 15 15 13 12 12 11 11 11 9 7 6 6 5 5 5 5 6 7 7 6 5 5 7 7 6 8 9 10 10 8 7 6 10 15 14 12 12 11
11 9 12 13 14 13 14 12 11 10 9 8 7 5 5 4 2 2 3 4 5 6 6 7 8 7 7 7 7 8 8 10 12 7 8 9 6 10 17 15 15 14 12
11 9 10 13 13 12 13 12 11 10 9 8 7 6 4 3 4 4 4 4 6 7 8 8 9 8 8 9 9 9 9 10 6 6 8 8 8 14 17 13 12 12 12
14 10 10 14 13 13 13 12 11 9 8 6 5 3 4 5 5 5 5 4 5 7 8 9 10 10 9 9 10 10 11 12 7 5 6 4 13 11 5 5 4 6 10
14 12 8 8 11 11 9 10 10 9 7 6 4 6 7 8 7 7 4 7 7 8 8 10 11 11 10 11 11 12 13 12 5 3 2 3 12 12 6 1 4 6 6
10 11 8 6 6 6 5 6 7 8 7 4 4 13 19 8 11 7 8 8 9 8 9 10 10 10 10 11 12 13 13 13 5 2 3 3 7 6 5 7 4 6 9
13 11 7 5 4 4 6 4 6 7 4 11 9 16 11 5 7 8 5 7 7 9 8 11 12 11 10 11 14 15 13 3 4 3 3 5 4 3 5 2 2 4 7
12 12 9 7 7 2 6 5 4 4 5 7 8 9 8 7 9 12 12 14 12 13 12 12 11 14 9 4 4 8 3 5 4 4 3 9 7 5 4 4 4 7 5
9 10 10 8 8 10 7 4 3 3 3 5 8 9 7 7 7 7 6 6 5 10 6 9 8 7 9 7 5 5 6 5 3 4 8 15 14 12 10 9 8 8 7
12 10 9 11 10 10 7 6 6 6 6 5 6 8 6 5 7 7 6 8 5 5 6 6 5 6 7 9 8 10 7 5 1 4 7 17 14 13 12 12 12 10 9
10 11 8 10 8 6 7 5 6 5 4 4 5 7 5 4 5 5 6 6 4 6 5 6 6 6 7 9 8 7 10 9 10 2 3 16 17 16 16 13 12 10 7
9 10 8 7 7 6 6 6 4 4 4 5 6 5 6 5 4 5 6 6 5 4 5 6 5 5 6 7 9 8 7 7 6 7 4 6 15 15 14 15 11 6 5
10 8 7 7 6 6 5 4 3 2 4 4 5 6 7 6 6 6 5 6 5 5 7 6 5 5 7 7 9 10 8 6 6 6 3 4 5 15 12 8 6 7 9
10 8 8 7 7 7 5 2 1 1 3 4 5 4 6 6 6 6 5 5 5 5 4 4 4 5 5 5 7 7 5 5 7 7 5 5 4 4 1 4 6 10 10
8 8 8 8 7 8 7 6 5 4 4 4 4 4 6 6 7 7 7 7 9 7 5 4 4 4 6 8 7 6 6 5 5 4 6 6 7 4 3 3 3 10 17
8 8 7 6 8 7 6 6 5 5 4 4 3 4 6 6 7 6 5 6 6 5 5 4 5 5 3 4 6 6 7 5 3 5 6 5 5 6 6 6 6 8 16
7 7 7 8 7 6 4 4 4 4 3 4 8 11 9 6 6 6 4 6 6 5 6 7 4 5 4 8 5 5 3 8 9 7 6 7 7 7 6 7 5 4 5
7 7 6 7 6 5 3 3 2 3 3 6 6 7 6 6 7 6 7 7 6 5 7 6 5 4 3 7 4 1 5 4 8 7 7 6 5 6 6 7 5 5 4
7 6 6 5 5 6 7 5 5 4 6 7 5 4 5 6 6 6 6 7 6 5 4 4 6 7 5 6 7 3 4 3 5 4 8 4 5 4 4 5 5 6 6
9 7 7 5 5 5 7 6 7 4 4 3 3 4 5 6 6 6 6 6 5 4 5 4 5 4 5 6 5 6 4 1 1 5 5 5 6 2 4 4 5 5 5
11 8 7 5 4 7 7 7 5 5 3 3 3 5 6 5 5 5 5 5 5 3 4 6 5 6 4 3 4 4 4 3 3 3 4 7 8 7 2 4 4 4 5
11 9 8 7 4 8 7 7 7 7 5 4 4 3 3 3 3 5 5 5 6 8 6 5 6 6 5 5 4 4 2 2 3 3 2 3 2 5 2 4 4 2 2
Wind_Direction
91 92 88 86 83 82 75 82 84 87 88 84 80 76 69 62 57 51 48 45 43 41 42 44 38 31 26 31 32 29 21 17 13 19 14 32 57 99 118 112 125 112 115
123 103 93 90 89 86 82 79 83 80 78 78 77 73 69 64 58 48 42 42 40 39 35 31 28 23 16 10 11 13 7 357 349 344 333 320 249 197 168 139 126 130 128
113 104 95 93 91 86 85 84 80 76 75 74 73 69 62 56 49 45 38 33 35 39 36 34 28 23 13 4 358 357 352 342 331 322 312 286 251 210 193 171 144 144 143
109 102 101 98 94 90 85 83 80 79 79 77 74 73 67 60 49 42 36 27 16 29 29 21 11 359 350 345 340 336 330 323 319 314 304 278 260 215 187 189 169 163 152
106 109 107 101 95 93 88 81 75 74 69 70 66 63 65 59 49 38 22 11 358 355 350 343 336 326 319 322 322 316 310 309 307 307 294 284 275 205 182 190 171 177 167
117 119 113 109 104 99 98 96 93 92 90 90 88 79 67 56 38 358 344 345 339 331 324 318 316 316 311 303 302 299 297 304 310 301 292 292 284 218 184 193 180 184 176
126 127 121 112 108 112 106 103 99 91 80 71 63 48 25 6 336 327 327 337 333 323 314 308 303 300 300 298 291 286 291 294 297 288 301 317 314 230 180 194 191 188 180
133 120 115 123 121 120 125 124 117 109 105 93 76 31 350 319 310 300 305 306 284 283 292 293 289 288 282 274 273 274 273 275 299 312 319 3 31 52 119 194 234 207 183
125 115 131 137 127 126 130 127 126 121 109 91 40 360 311 287 272 269 253 254 263 271 281 284 286 287 286 280 273 268 265 275 279 275 332 43 58 64 55 338 268 262 229
105 123 139 130 137 130 136 130 115 100 97 89 27 11 358 7 330 269 230 243 264 283 285 279 281 283 282 283 275 263 261 264 269 190 157 144 90 83 61 18 312 245 251
66 70 59 68 100 157 116 140 104 114 132 69 46 27 20 10 13 26 347 257 304 316 292 289 283 276 272 272 275 264 258 221 186 190 181 190 161 132 81 96 40 45 43
63 64 56 57 28 23 114 125 128 121 85 64 44 33 20 7 11 12 353 15 342 322 314 332 310 324 315 289 295 283 231 221 208 173 188 189 182 169 192 180 111 96 88
82 62 48 42 33 41 55 59 43 53 78 73 55 41 21 9 3 2 352 351 347 12 12 9 357 356 351 342 325 299 263 234 219 178 195 194 181 169 174 179 159 148 141
74 67 48 38 41 41 47 45 47 42 34 58 55 47 29 16 7 354 350 338 349 3 4 359 346 335 340 335 341 325 333 284 300 186 200 189 176 181 186 185 181 171 163
84 77 61 52 45 45 54 44 44 36 46 53 64 54 39 26 6 345 338 331 11 2 353 347 330 330 340 334 337 343 337 342 329 190 216 210 185 186 194 186 186 178 184
96 101 87 72 62 53 47 62 54 27 40 48 72 59 38 22 7 355 339 346 358 349 347 331 319 343 348 341 332 332 319 318 323 324 291 223 203 196 193 191 190 200 209
80 75 116 105 87 72 63 73 74 38 67 71 98 60 41 21 9 355 338 341 339 340 334 335 354 1 350 332 321 319 320 320 330 337 332 266 252 197 191 191 203 282 265
83 70 57 62 57 56 31 16 86 357 62 72 85 70 52 27 14 354 342 331 332 336 336 350 360 353 328 318 310 305 304 320 325 341 27 35 69 69 103 279 281 284 304
90 80 62 41 32 47 30 35 36 33 59 83 82 72 58 30 16 12 4 359 360 350 359 6 360 357 342 324 321 329 327 321 334 53 55 57 71 88 76 52 89 77 64
85 82 75 51 38 34 33 25 15 18 18 70 62 62 54 45 53 44 1 358 358 348 353 353 5 343 316 303 344 331 319 313 81 48 45 37 52 78 74 79 62 81 73
90 84 70 60 36 36 27 31 15 352 349 35 53 50 51 32 21 46 351 360 351 344 344 7 344 338 334 355 331 340 350 47 53 36 40 32 29 34 87 100 105 76 76
105 88 85 74 53 32 31 22 22 347 36 71 67 39 38 28 17 27 14 353 342 347 13 19 357 355 336 2 350 2 5 350 8 25 37 32 30 58 59 67 73 104 103
111 105 87 93 72 46 49 24 11 25 40 38 28 21 17 25 7 15 10 1 349 8 1 13 10 25 12 0 12 59 13 356 325 13 2 359 23 73 82 103 92 91 99
133 119 102 76 71 71 63 53 55 58 58 17 20 27 10 5 1 13 7 352 2 354 19 11 16 17 35 22 354 2 21 126 54 340 331 347 342 358 122 78 72 58 80
134 133 130 115 87 81 79 77 74 60 66 47 19 20 14 4 7 358 356 347 7 357 12 28 21 22 21 45 27 341 352 349 19 51 333 345 357 355 52 122 108 83 89
137 138 137 125 109 99 89 83 90 87 71 58 14 8 1 353 358 347 349 357 2 21 16 18 20 34 47 40 23 13 31 9 332 28 7 319 316 323 333 37 50 78 79